Location: Prague
(50.0830°N, 14.4670°E)
Time: 20:41:14
(UTC+02:00)

ISS - Pass Details

Date: 03 October 2021
Orbit: 417 x 423 km, 51.6° (Epoch: 28 October)

Event Time Altitude Azimuth Distance (km) Brightness Sun altitude
Rises 20:18:44 0° 285° (WNW) 2,366 1.9 -17.2°
Reaches altitude 10° 20:21:07 10° 270° (W) 1,500 0.2 -17.6°
Maximum altitude 20:23:47 22° 217° (SW) 968 -1.7 -18.0°
Enters shadow 20:25:11 17° 183° (S) 1,136 -1.7 -18.2°
